Regional Weather Roundup
Issued by NWS Cleveland, OH

Home | Current Version | Previous Version | Text Only | Print | Product List | Glossary Off
Versions: 1 2 3 4 5 6 7 8 9 10 11 12 13 14 15 16 17 18 19 20 21 22 23 24 25 26 27 28 29 30 31 32 33 34 35 36 37 38 39 40 41 42 43 44 45 46 47 48 49 50

000
ASUS41 KCLE 191010
RWRCLE
OHIO REGIONAL WEATHER ROUNDUP
NATIONAL WEATHER SERVICE CLEVELAND, OH
500 AM EST SUN NOV 19 2017

NOTE: "FAIR" INDICATES FEW OR NO CLOUDS BELOW 12,000 FEET WITH NO
SIGNIFICANT WEATHER AND/OR OBSTRUCTIONS TO VISIBILITY.

OHZ001>008-015>018-024>027-034-035-043-044-191100-
   NORTHWEST OHIO

CITY           SKY/WX    TMP DP  RH WIND       PRES   REMARKS
DEFIANCE       CLOUDY    37  31  78 NW12      29.79R
FINDLAY        CLOUDY    39  27  62 NW16G28   29.76R
TOLEDO EXPRESS CLOUDY    39  30  70 NW14G24   29.76R
TOLEDO EXEC    CLOUDY    38  30  73 W18G30    29.76R
LIMA           NOT AVBL
$$

OHZ009>014-019>023-028>033-038-089-191100-
   NORTHEAST OHIO

CITY           SKY/WX    TMP DP  RH WIND       PRES   REMARKS
CLE-HOPKINS    CLOUDY    40  29  64 NW20G31   29.70R
CLE-LAKEFRONT  CLOUDY    41  31  67 W32G41    29.66R
CUY CO. ARPT   NOT AVBL
LORAIN-ELYRIA  CLOUDY    39  26  59 NW21G28   29.70R
ASHTABULA      LGT RAIN  39  35  86 NW14G25   29.60R
AKRON-CANTON   CLOUDY    38  32  79 W12       29.67R
WOOSTER        CLOUDY    37  29  72 NW16G28   29.70R
MANSFIELD      CLOUDY    37  31  78 W13G18    29.72R
YOUNGSTOWN     CLOUDY    39  34  82 W17G25    29.60R
$$

OHZ042-051>053-060>062-070>072-077>081-191100-
  SOUTHWEST OHIO

CITY           SKY/WX    TMP DP  RH WIND       PRES   REMARKS
CINC-COVINGTON CLOUDY    39  31  72 W12       29.89R
CINC-LUNKEN    CLOUDY    41  31  67 W10       29.90R
HAMILTON       CLOUDY    40  32  73 W10G16    29.89R
DAYTON         CLOUDY    38  34  85 W17       29.84R
WRIGHT-PAT AFB CLOUDY    39  33  78 W12       29.83R
DAYTON GENERAL CLOUDY    38  32  79 W12       29.84R
WILMINGTON     CLOUDY    38  35  89 W13       29.84R
$$

OHZ036-037-039>041-045>050-054>059-063>069-073>076-082>088-191100-
  CENTRAL AND SOUTHEAST OHIO

CITY           SKY/WX    TMP DP  RH WIND       PRES   REMARKS
COLUMBUS       CLOUDY    41  31  67 NW14      29.78R
OSU AIRPORT    CLOUDY    39  32  76 NW14      29.78R
BOLTON FIELD   CLOUDY    37  34  89 NW9       29.80R
RICKENBACK AFB LGT RAIN  38  36  91 NW15G22   29.80R
NEWARK         CLOUDY    40  34  79 W9        29.76R
MARION         CLOUDY    38  30  73 NW10      29.76R
LANCASTER      CLOUDY    40  30  67 W9        29.78R
ZANESVILLE     CLOUDY    40  32  73 W10G17    29.75R
NEW PHILLY     NOT AVBL
$$




USA.gov is the U.S. government's official web portal to all federal, state and local government web resources and services.